Coolangatta, Australia

5:25 PM AEST on May 21, 2018 (GMT +1000)
Coolangatta

Weather History for YBCG - November, 2013

Change the Weather History Date:

Monday, November 4, 2013

  Actual Average Record
Temperature  
Mean Temperature 70 °F -  
Max Temperature 75 °F - - ()
Min Temperature 62 °F - - ()
Cooling Degree Days 4    
Growing Degree Days 20 (Base 50)    
Moisture  
Dew Point 58 °F    
Average Humidity 66    
Maximum Humidity 88    
Minimum Humidity 40    
Precipitation  
Precipitation 0.00 in - - ()
Sea Level Pressure  
Sea Level Pressure 30.06 in    
Wind  
Wind Speed 15 mph ()    
Max Wind Speed 23 mph    
Max Gust Speed 33 mph    
Visibility 6.1 miles    
Events      
T = Trace of Precipitation, MM = Missing Value Source: Averaged Metar Reports

Daily Weather History Graph

Daily Weather History Graph

Search for Another Location

Airport or City:

Astronomy

Nov. 04, 2013 Rise Set
Actual Time 4:51 AM AEST 6:07 PM AEST
Civil Twilight 4:27 AM AEST 6:32 PM AEST
Nautical Twilight 3:57 AM AEST 7:02 PM AEST
Astronomical Twilight 3:27 AM AEST 7:32 PM AEST
Moon 5:10 AM AEST (11/4) 6:52 PM AEST (11/4)
Length of Visible Light 14h 05m
Length of Day
13h 15m
New Moon, 0% of the Moon is Illuminated
Nov 4
New Moon
Nov 10
First Quarter
Nov 18
Full
Nov 26
Last Quarter
Dec 3
New

Hourly Weather History & Observations

Time (AEST) Temp. Dew Point Humidity Pressure Visibility Wind Dir Wind Speed Gust Speed Precip Events Conditions
12:00 AM 72 °F 66 °F 77% 29.90 in - NNW 10.4 mph - -  
12:00 AM 71.6 °F 66.2 °F 83% 29.89 in 6.2 mi NNW 10.4 mph - N/A   Unknown
12:30 AM 71.6 °F 66.2 °F 83% 29.89 in 6.2 mi NNW 10.4 mph - N/A   Unknown
1:00 AM 69.8 °F 66.2 °F 88% 29.86 in 6.2 mi WSW 5.8 mph - N/A   Unknown
1:24 AM 69.8 °F 66.2 °F 88% 29.92 in 6.2 mi South 19.6 mph - N/A   Unknown
2:00 AM 71.6 °F 64.4 °F 78% 29.92 in 5.0 mi South 16.1 mph - N/A   Overcast
2:05 AM 71.6 °F 64.4 °F 78% 29.92 in 5.0 mi South 16.1 mph - N/A   Overcast
2:30 AM 71.6 °F 64.4 °F 78% 29.92 in 5.6 mi South 16.1 mph - N/A   Overcast
3:00 AM 71 °F 62 °F 67% 29.94 in 6 mi South 18.4 mph - -  
3:00 AM 71.6 °F 62.6 °F 73% 29.95 in 5.6 mi South 18.4 mph - N/A   Overcast
3:09 AM 71.6 °F 62.6 °F 73% 29.95 in 6.2 mi South 18.4 mph 33.4 mph N/A   Overcast
3:30 AM 69.8 °F 60.8 °F 73% 29.95 in 6.2 mi South 18.4 mph - N/A   Overcast
4:00 AM 69.8 °F 60.8 °F 73% 29.95 in 6.2 mi South 20.7 mph - N/A   Overcast
4:30 AM 69.8 °F 59.0 °F 68% 29.98 in 6.2 mi South 19.6 mph - N/A   Overcast
5:01 AM 68.0 °F 59.0 °F 73% 29.98 in 6.2 mi South 17.3 mph 29.9 mph N/A   Overcast
5:30 AM 68.0 °F 59.0 °F 73% 30.01 in 6.2 mi South 16.1 mph - N/A   Overcast
6:00 AM 70 °F 58 °F 57% 30.03 in - South 16.1 mph - -  
6:00 AM 69.8 °F 59.0 °F 68% 30.01 in 6.2 mi South 16.1 mph - N/A   Overcast
6:30 AM 69.8 °F 59.0 °F 68% 30.04 in 6.2 mi South 19.6 mph - N/A   Overcast
6:51 AM 71.6 °F 57.2 °F 60% 30.04 in 6.2 mi South 20.7 mph 33.4 mph N/A   Overcast
7:00 AM 71.6 °F 57.2 °F 60% 30.04 in 6.2 mi South 19.6 mph 33.4 mph N/A   Overcast
7:30 AM 71.6 °F 57.2 °F 60% 30.06 in 6.2 mi South 23.0 mph - N/A   Overcast
8:00 AM 71.6 °F 57.2 °F 60% 30.06 in 6.2 mi South 21.9 mph - N/A   Overcast
8:30 AM 73.4 °F 57.2 °F 57% 30.06 in 6.2 mi South 17.3 mph - N/A   Overcast
9:00 AM 74 °F 57 °F 46% 30.08 in - South 18.4 mph - -   Overcast
9:00 AM 73.4 °F 57.2 °F 57% 30.06 in 6.2 mi South 18.4 mph - N/A   Overcast
9:30 AM 75.2 °F 57.2 °F 53% 30.06 in 6.2 mi South 18.4 mph - N/A   Overcast
10:00 AM 75.2 °F 57.2 °F 53% 30.06 in 6.2 mi SSE 15.0 mph - N/A   Overcast
10:30 AM 73.4 °F 57.2 °F 57% 30.06 in 6.2 mi SSE 18.4 mph - N/A   Overcast
11:00 AM 73.4 °F 55.4 °F 53% 30.06 in 6.2 mi SSE 16.1 mph - N/A   Overcast
11:30 AM 73.4 °F 55.4 °F 53% 30.06 in 6.2 mi South 17.3 mph - N/A   Overcast
12:00 PM 75 °F 56 °F 40% 30.08 in - SSE 18.4 mph - -   Overcast
12:00 PM 75.2 °F 55.4 °F 50% 30.06 in 6.2 mi SSE 18.4 mph - N/A   Overcast
12:30 PM 73.4 °F 57.2 °F 57% 30.06 in 6.2 mi SSE 18.4 mph - N/A   Overcast
1:00 PM 73.4 °F 57.2 °F 57% 30.06 in 6.2 mi SSE 17.3 mph - N/A   Overcast
1:30 PM 73.4 °F 57.2 °F 57% 30.06 in 6.2 mi SSE 16.1 mph - N/A   Overcast
2:00 PM 75.2 °F 57.2 °F 53% 30.06 in 6.2 mi SSE 19.6 mph - N/A   Overcast
2:30 PM 73.4 °F 55.4 °F 53% 30.04 in 6.2 mi SE 19.6 mph - N/A   Overcast
3:00 PM 72 °F 55 °F 45% 30.06 in - SSE 20.7 mph - -   Overcast
3:00 PM 71.6 °F 55.4 °F 57% 30.04 in 6.2 mi SSE 20.7 mph - N/A   Overcast
3:30 PM 71.6 °F 55.4 °F 57% 30.04 in 6.2 mi SSE 18.4 mph - N/A   Overcast
4:00 PM 69.8 °F 55.4 °F 60% 30.06 in 6.2 mi SSE 17.3 mph - N/A   Overcast
4:30 PM 69.8 °F 55.4 °F 60% 30.06 in 6.2 mi SSE 18.4 mph - N/A   Overcast
5:00 PM 68.0 °F 57.2 °F 68% 30.09 in 5.6 mi SSE 17.3 mph - N/A   Overcast
5:30 PM 66.2 °F 57.2 °F 73% 30.09 in 6.2 mi SSE 16.1 mph 28.8 mph N/A   Overcast
6:00 PM 65 °F 58 °F 73% 30.14 in - SSE 11.5 mph - -   Overcast
6:00 PM 66.2 °F 59.0 °F 78% 30.12 in 6.2 mi SSE 11.5 mph - N/A   Overcast
6:03 PM 66.2 °F 59.0 °F 78% 30.12 in 6.2 mi SSE 12.7 mph - N/A   Overcast
6:30 PM 64.4 °F 57.2 °F 77% 30.15 in 6.2 mi SSE 16.1 mph - N/A   Overcast
7:00 PM 64.4 °F 57.2 °F 77% 30.15 in 5.6 mi SSE 17.3 mph 28.8 mph N/A   Overcast
7:30 PM 64.4 °F 57.2 °F 77% 30.18 in 6.2 mi South 13.8 mph - N/A   Overcast
8:00 PM 64.4 °F 57.2 °F 77% 30.18 in 6.2 mi South 16.1 mph - N/A   Overcast
8:30 PM 64.4 °F 55.4 °F 73% 30.21 in 6.2 mi South 16.1 mph - N/A   Overcast
9:00 PM 65 °F 54 °F 60% 30.23 in - South 15.0 mph - -   Overcast
9:00 PM 64.4 °F 53.6 °F 68% 30.21 in 6.2 mi South 15.0 mph - N/A   Overcast
9:30 PM 64.4 °F 53.6 °F 68% 30.21 in 6.2 mi South 16.1 mph - N/A   Overcast
10:00 PM 66.2 °F 51.8 °F 60% 30.24 in 6.2 mi South 15.0 mph - N/A   Overcast
10:30 PM 66.2 °F 53.6 °F 64% 30.24 in 6.2 mi South 18.4 mph - N/A   Overcast
11:00 PM 64.4 °F 53.6 °F 68% 30.24 in 6.2 mi South 20.7 mph - N/A   Overcast
11:08 PM 64.4 °F 53.6 °F 68% 30.24 in 6.2 mi South 17.3 mph 28.8 mph N/A   Overcast
11:30 PM 62.6 °F 53.6 °F 72% 30.24 in 6.2 mi South 17.3 mph - N/A   Overcast